This is the latest recevied weather packets stored in our database for station/object IW1CBG-23. If no packets are shown the sender has not sent any weather packets the latest 10 day(s).
| Time | Temp. | Humidity | Pressure | Rain* | Wind** | Luminosity | Snow |
|---|---|---|---|---|---|---|---|
| 1777825042 | 12.22° C | 84% | 1012.9 hPa | - | - | - | - |
| 1777823805 | 13.33° C | 79% | 1013 hPa | - | - | - | - |
| 1777822569 | 13.33° C | 76% | 1013.1 hPa | - | - | - | - |
| 1777821331 | 13.33° C | 79% | 1012.9 hPa | - | - | - | - |
| 1777820094 | 12.78° C | 78% | 1013.2 hPa | - | - | - | - |
| 1777818856 | 12.78° C | 79% | 1013.3 hPa | - | - | - | - |
| 1777817618 | 12.78° C | 79% | 1013.5 hPa | - | - | - | - |
| 1777816380 | 12.22° C | 78% | 1013.6 hPa | - | - | - | - |
| 1777815144 | 12.78° C | 74% | 1013.8 hPa | - | - | - | - |
| 1777813906 | 12.78° C | 71% | 1014 hPa | - | - | - | - |
| 1777812670 | 12.78° C | 67% | 1014.3 hPa | - | - | - | - |
| 1777811434 | 13.33° C | 65% | 1014.4 hPa | - | - | - | - |
| 1777810198 | 14.44° C | 61% | 1014.5 hPa | - | - | - | - |
| 1777808961 | 14.44° C | 57% | 1014.5 hPa | - | - | - | - |
| 1777806485 | 14.44° C | 56% | 1014.4 hPa | - | - | - | - |
| 1777805247 | 14.44° C | 56% | 1014.6 hPa | - | - | - | - |
| 1777804012 | 14.44° C | 55% | 1014.6 hPa | - | - | - | - |
| 1777802775 | 17.22° C | 44% | 1014.5 hPa | - | - | - | - |
| 1777801534 | 15° C | 45% | 1014.5 hPa | - | - | - | - |
| 1777800298 | 16.11° C | 45% | 1014.8 hPa | - | - | - | - |
| 1777799056 | 15.56° C | 48% | 1014.9 hPa | - | - | - | - |
| 1777797818 | 13.33° C | 56% | 1014.9 hPa | - | - | - | - |
| 1777796578 | 11.67° C | 54% | 1015.1 hPa | - | - | - | - |
| 1777795342 | 11.67° C | 51% | 1014.9 hPa | - | - | - | - |
| 1777794105 | 12.78° C | 49% | 1014.8 hPa | - | - | - | - |
* Rain since midnight (hover to see other rain measurements)
** Current wind speed in m/s (hover to see current wind gust speed)